Flag Weather past 2 weeks in Molepolole, Botswana

Now
73 °F

Passing clouds.


Feels Like: 75 °F
Forecast: 70 / 89 °F
Wind: 8 mph from Northwest

Location: Seretse Khama International Airport

Current Time: Nov 28, 2014 at 9:30:22 PM

Latest Report: Nov 28, 2014 at 9:00 PM


Visibility: N/A

Pressure: 30.01 "Hg

Humidity: 74%

Dew point: 64 °F

Location of MolepololeLocation

Historic Weather in Molepolole — Graph

°F

Molepolole temperature yesterday

Maximum temperature yesterday: 70 °F (at 3:00 PM)
Minimum temperature yesterday: 64 °F (at 10:00 AM)
Average temperature yesterday: 67 °F

Past Weeks' High & Low Weather Summary

 TemperatureHumidityPressure
High97 °F (Nov 14, 3:00 PM)100% (Nov 27, 10:00 AM)30.33 "Hg (Nov 27, 10:00 AM)
Low55 °F (Nov 19, 3:00 AM)9% (Nov 16, 7:00 PM)29.83 "Hg (Nov 26, 6:00 PM)
Average76 °F47%30.05 "Hg
* Reported Nov 13 8:00 PM — Nov 28 8:00 PM, Molepolole, Weather by CustomWeather, © 2014

Note: Actual official high and low records may vary slightly from our data, if they occured in-between our weather recording intervals... More about our weather records

Advertising

Molepolole weather history for previous 24 hours

 ConditionsComfort  
Time TempWeatherWind HumidityBarometerVisibility
8:00 PM
Nov 28
73 °FPassing clouds.5 mph69%30.01 "HgN/A
7:00 PM75 °FPassing clouds.12 mph65%29.98 "HgN/A
6:00 PM81 °FPassing clouds.3 mph54%29.95 "HgN/A
5:00 PM82 °FScattered clouds.2 mph42%29.95 "HgN/A
4:00 PM82 °FScattered clouds.2 mph45%29.95 "HgN/A
3:00 PM84 °FScattered clouds.3 mph43%29.98 "HgN/A
2:00 PM82 °FScattered clouds.3 mph48%30.01 "HgN/A
1:00 PM82 °FPassing clouds.6 mph48%30.01 "HgN/A
12:00 PM79 °FPassing clouds.5 mph51%30.01 "HgN/A
11:00 AM77 °FPassing clouds.5 mph57%30.04 "HgN/A
10:00 AM70 °FScattered clouds.6 mph78%30.04 "HgN/A
9:00 AM70 °FScattered clouds.6 mph78%30.04 "HgN/A
8:00 AM68 °FScattered clouds.7 mph88%30.04 "HgN/A
7:00 AM66 °FPassing clouds.8 mph94%30.04 "Hg6 mi
6:00 AM64 °FClear.7 mph100%30.01 "Hg4 mi
12:00 AM64 °FPassing clouds.2 mph100%30.01 "Hg4 mi
10:00 PM
Nov 27
66 °FThunderstorms. Partly cloudy.2 mph94%30.01 "HgN/A
9:00 PM66 °FThunderstorms. Partly cloudy.7 mph94%29.98 "HgN/A
Weather by CustomWeather, © 2014

See weather overviewHow to use our weather pages